Temp
51 51 52 52 52 52 52 52 52 52 52 52 52 52 52 52 52 49 48 47 46 41 43 45 47 42 43 42 39 43 44 44 45 41 41 41 39 43 41 43 41 41 38 38 38 33 31 49 48 41 47 51 51 52
51 51 51 51 51 51 51 51 51 51 52 51 51 52 52 52 52 50 42 48 48 40 43 46 49 51 49 49 45 43 41 41 46 43 43 42 40 41 40 37 45 38 44 40 40 41 47 49 49 53 52 50 52 52
51 51 51 51 51 51 51 51 51 51 52 51 51 51 52 52 52 51 46 48 46 39 42 41 45 50 50 50 54 40 45 46 44 47 46 44 37 45 39 41 41 44 45 44 42 46 47 49 52 53 54 52 53 53
50 51 51 51 51 51 51 51 51 51 51 51 51 51 52 52 50 50 46 46 44 39 31 41 50 47 53 51 49 49 47 47 46 48 46 44 41 44 42 41 42 47 45 43 43 47 49 50 52 53 52 53 52 53
50 50 50 51 51 51 51 51 51 51 51 51 51 51 51 49 51 49 46 46 48 40 35 39 47 49 50 49 47 48 46 45 46 45 44 42 45 43 44 42 41 45 44 40 41 47 47 49 53 53 50 50 50 49
49 50 50 50 51 51 51 51 50 50 51 51 51 51 51 51 48 47 41 44 43 43 35 31 46 44 48 49 46 45 46 44 46 45 45 46 42 43 39 38 44 46 46 48 48 50 50 51 51 51 49 49 50 49
49 50 50 50 51 51 51 50 50 50 51 51 50 50 51 51 47 43 41 44 45 44 37 34 38 47 47 47 47 45 45 47 47 44 44 45 45 42 41 36 45 46 48 49 50 47 49 50 50 51 50 50 49 50
49 49 50 50 50 51 50 50 50 51 51 50 48 49 51 50 49 44 49 49 49 42 40 31 35 39 44 40 40 46 43 43 42 43 44 44 41 42 34 44 45 47 49 49 49 50 50 52 51 51 50 49 48 48
49 49 49 50 50 50 50 50 51 51 50 50 50 50 48 45 41 41 49 50 48 44 34 34 31 31 44 36 41 42 43 38 44 39 43 42 37 33 42 45 46 48 48 49 51 52 52 51 50 50 49 49 47 47
49 50 49 50 50 50 50 50 50 49 49 50 48 43 36 41 47 47 43 38 37 38 38 32 40 33 40 42 41 35 38 35 32 39 41 37 35 45 47 48 49 50 50 50 48 49 50 49 49 49 49 49 48 47
49 50 50 50 49 50 50 50 49 49 49 44 37 35 41 48 44 40 35 33 35 31 36 37 38 35 43 36 37 40 35 35 32 35 36 34 34 42 47 48 51 50 51 51 52 52 52 51 51 50 50 50 49 48
49 49 49 48 48 48 50 49 48 46 42 43 43 45 44 41 38 33 33 35 32 31 36 33 35 36 40 41 37 40 35 35 30 37 35 31 39 47 49 52 53 54 53 53 54 53 53 53 53 51 50 49 49 48
49 48 48 48 48 49 49 48 48 48 48 46 40 37 37 36 29 27 27 30 31 35 36 36 34 36 38 38 38 37 32 33 36 34 32 38 44 48 50 53 53 54 54 54 54 54 54 53 54 52 49 49 48 46
48 48 48 48 48 48 47 48 48 47 44 38 35 27 32 30 32 32 32 33 38 36 36 35 34 35 38 36 39 31 39 39 31 29 31 41 45 48 51 53 53 53 53 54 53 53 54 54 54 52 50 49 47 45
48 48 47 47 47 48 47 48 47 45 41 35 35 27 32 36 36 37 39 37 37 38 37 35 34 35 36 35 38 37 33 31 31 33 39 45 46 48 51 51 52 53 54 54 54 53 53 53 53 52 51 50 48 47
47 47 46 47 47 46 47 47 46 44 40 37 36 34 38 36 38 39 38 38 45 40 40 36 35 33 35 35 32 31 31 31 34 40 44 45 47 49 49 52 53 54 54 54 54 54 54 54 53 52 53 50 48 47
47 43 47 47 47 48 47 45 42 38 37 34 36 39 36 36 36 39 40 42 45 39 34 36 31 32 35 32 31 34 33 35 41 43 46 46 47 48 50 52 53 54 54 54 55 55 55 54 54 54 51 49 49 47
43 45 48 47 47 45 44 42 39 36 32 37 35 40 39 40 39 41 43 45 42 41 41 35 37 35 31 29 31 33 38 44 45 45 47 49 49 50 52 52 54 55 55 55 55 56 55 55 54 54 52 51 50 48
44 46 47 47 46 43 39 38 39 32 37 39 39 40 39 40 43 43 42 44 43 43 41 41 35 32 33 34 35 40 43 44 45 47 48 50 51 51 51 53 55 55 55 55 55 58 57 55 56 56 57 56 52 49
46 46 47 47 45 40 36 37 39 33 34 38 39 40 40 41 44 44 43 44 43 42 41 36 34 34 35 42 44 44 46 47 46 50 51 54 51 53 51 51 55 54 56 55 56 47 58 58 56 56 57 54 53 49
45 45 45 44 42 39 36 37 36 38 38 37 41 40 40 42 42 42 42 43 43 38 38 40 38 42 47 49 50 49 49 47 49 49 49 53 53 53 53 55 55 57 58 58 59 58 53 58 58 58 56 54 53 51
43 45 43 44 39 38 37 40 38 40 37 39 40 41 40 40 41 42 42 41 37 38 40 39 41 43 45 48 49 50 50 50 50 51 45 47 53 54 55 55 57 57 58 58 59 60 61 62 60 57 56 52 51 52
44 43 41 40 34 33 33 41 35 37 33 36 39 36 39 40 42 44 38 39 39 43 43 42 42 45 45 49 51 51 50 50 53 53 53 55 55 55 55 56 57 58 58 59 59 59 60 47 52 57 54 53 53 51
45 39 34 34 33 31 37 33 35 34 35 33 33 34 37 39 42 39 35 38 39 42 41 41 42 45 50 51 50 49 50 50 51 54 55 55 56 56 56 57 59 60 59 59 60 60 61 61 50 56 55 53 53 51
31 31 33 26 35 32 32 34 33 33 31 33 32 34 35 38 36 34 33 35 39 39 40 42 43 42 41 44 47 48 50 49 48 49 55 54 55 59 59 61 60 59 60 59 59 60 61 62 60 58 55 54 53 49
23 34 31 35 35 31 32 30 33 31 32 31 33 35 36 36 32 30 34 37 38 39 39 39 39 40 42 44 42 44 47 50 49 51 55 56 56 56 55 55 55 58 60 59 58 60 62 62 60 57 55 50 39 48
25 32 37 40 36 36 34 37 38 34 32 31 33 33 32 29 29 34 38 39 38 40 41 43 42 41 42 44 46 49 50 50 49 52 54 56 56 55 54 52 51 54 55 58 60 60 60 61 60 58 55 54 52 45
35 36 30 35 31 35 31 33 33 33 33 36 36 30 29 29 31 36 38 40 41 42 43 46 46 46 46 48 49 50 51 53 54 54 56 58 57 56 54 54 55 36 52 58 57 60 59 60 59 56 55 53 48 46
34 38 36 32 32 33 33 33 35 36 39 36 33 32 33 38 40 40 40 41 43 44 42 43 45 48 49 51 52 52 52 52 51 49 47 47 48 52 52 51 53 55 56 58 41 43 49 54 59 56 54 53 47 47
34 38 33 33 29 28 34 36 36 39 39 38 38 37 37 38 43 45 44 46 45 44 44 44 46 47 47 47 48 51 51 52 51 48 45 45 46 50 49 50 51 52 54 56 56 57 41 52 46 50 49 51 48 47
35 35 33 34 33 36 37 38 40 39 38 37 38 36 35 38 42 43 42 44 47 48 48 47 48 47 48 47 47 46 48 52 51 49 48 49 49 48 48 49 51 53 54 54 55 56 56 54 52 48 49 49 44 42
34 33 33 31 33 36 38 35 35 35 35 35 35 37 39 39 37 43 44 43 43 41 39 43 44 45 48 50 50 49 38 48 47 46 45 46 47 48 50 51 52 51 51 51 51 52 54 55 55 52 51 46 42 42
35 35 35 35 34 34 36 37 36 35 35 35 35 36 36 36 33 42 46 45 42 42 42 44 46 47 47 47 47 48 42 48 40 33 34 33 33 35 45 49 50 49 49 49 48 47 47 48 47 49 46 44 43 42
MSLP
1027.63 1027.42 1027.26 1027.06 1026.85 1026.69 1026.54 1026.38 1026.29 1026.14 1025.92 1025.81 1025.69 1025.54 1025.35 1025.34 1025.12 1025.23 1025.36 1025.52 1025.07 1024.17 1022.80 1022.39 1021.97 1021.60 1021.25 1021.11 1020.43 1020.20 1019.53 1019.04 1018.38 1017.64 1017.08 1016.70 1016.58 1016.45 1016.48 1016.55 1016.63 1016.72 1016.97 1017.13 1017.43 1017.19 1016.75 1016.71 1016.75 1016.80 1017.01 1016.84 1016.86 1016.70
1027.31 1027.09 1026.83 1026.61 1026.42 1026.29 1026.23 1026.14 1026.02 1025.79 1025.59 1025.48 1025.41 1025.28 1025.10 1025.08 1025.02 1025.08 1025.19 1025.17 1025.13 1024.84 1023.06 1022.58 1021.95 1021.45 1021.15 1020.94 1020.78 1020.64 1020.14 1019.65 1018.87 1018.13 1017.83 1017.55 1017.18 1017.17 1016.93 1016.50 1017.05 1017.09 1017.20 1017.15 1017.43 1016.94 1016.96 1017.14 1016.96 1016.95 1017.09 1016.96 1016.73 1016.66
1026.93 1026.68 1026.43 1026.22 1025.99 1025.90 1025.75 1025.56 1025.56 1025.46 1025.28 1025.16 1025.16 1025.04 1024.94 1024.87 1024.73 1024.69 1024.80 1024.88 1025.01 1024.49 1022.82 1022.12 1020.72 1020.43 1020.66 1020.55 1020.67 1020.79 1020.18 1019.83 1019.47 1019.26 1018.58 1018.21 1017.82 1017.77 1017.20 1017.12 1017.28 1017.47 1017.75 1017.41 1017.49 1016.98 1016.99 1017.06 1017.07 1017.04 1017.02 1016.95 1016.90 1016.83
1026.56 1026.46 1026.11 1025.80 1025.52 1025.34 1025.24 1025.17 1025.14 1025.06 1024.89 1024.80 1024.78 1024.72 1024.62 1024.48 1024.43 1024.41 1024.62 1024.81 1024.91 1024.63 1023.48 1021.03 1020.47 1020.19 1019.91 1019.91 1019.95 1020.15 1020.17 1020.21 1020.02 1019.53 1018.79 1018.45 1018.28 1018.51 1018.08 1018.13 1017.80 1017.67 1017.94 1017.47 1017.19 1016.94 1016.84 1016.70 1016.83 1016.87 1016.99 1017.01 1016.95 1016.82
1026.30 1026.01 1025.65 1025.29 1025.01 1024.85 1024.74 1024.71 1024.71 1024.57 1024.46 1024.40 1024.33 1024.30 1024.29 1024.36 1024.22 1024.21 1024.28 1024.21 1024.07 1024.50 1023.29 1021.26 1020.37 1019.74 1019.71 1019.66 1019.69 1020.03 1020.29 1020.27 1019.75 1019.19 1018.72 1018.56 1018.88 1019.04 1018.87 1018.72 1017.69 1017.59 1017.19 1017.33 1016.75 1016.91 1017.02 1016.73 1016.81 1017.08 1017.03 1017.07 1017.18 1017.09
1025.75 1025.43 1025.22 1024.96 1024.63 1024.41 1024.24 1024.18 1024.22 1024.21 1024.12 1024.04 1023.97 1023.98 1024.01 1024.04 1024.12 1024.07 1023.83 1024.03 1024.16 1024.34 1023.85 1021.92 1020.32 1019.54 1019.28 1019.22 1019.36 1019.69 1020.05 1020.40 1019.94 1019.27 1018.90 1019.00 1019.39 1019.32 1018.60 1017.92 1017.20 1017.33 1017.40 1017.42 1017.07 1017.23 1017.19 1017.02 1017.01 1017.14 1017.23 1017.36 1017.36 1017.29
1025.22 1025.06 1024.87 1024.65 1024.31 1023.95 1023.60 1023.69 1023.85 1023.82 1023.76 1023.71 1023.68 1023.82 1023.85 1023.83 1024.09 1023.96 1023.60 1023.66 1023.90 1024.05 1023.54 1022.09 1020.37 1019.58 1019.32 1019.17 1019.34 1019.67 1019.99 1019.72 1019.52 1019.49 1019.11 1018.99 1019.22 1019.28 1018.61 1017.57 1016.94 1017.11 1017.22 1017.28 1017.37 1017.53 1016.87 1016.75 1016.75 1017.04 1017.23 1017.40 1017.40 1017.34
1024.79 1024.53 1024.35 1024.17 1023.81 1023.24 1023.32 1023.52 1023.54 1023.53 1023.56 1023.52 1023.63 1023.67 1023.58 1023.52 1023.49 1023.49 1022.91 1022.97 1023.35 1023.71 1023.51 1022.53 1020.63 1019.97 1019.76 1018.92 1018.91 1019.30 1019.36 1019.64 1019.61 1019.22 1019.38 1018.86 1019.43 1019.14 1018.10 1017.02 1017.05 1017.04 1017.03 1017.05 1017.10 1017.12 1016.88 1016.83 1016.85 1016.92 1017.22 1017.26 1017.12 1017.05
1024.29 1023.98 1023.78 1023.63 1023.43 1023.22 1023.28 1023.32 1023.31 1023.34 1023.41 1023.45 1023.41 1023.33 1023.34 1023.35 1023.41 1023.34 1022.86 1022.64 1023.15 1023.32 1022.86 1022.37 1021.26 1020.15 1019.88 1019.37 1018.93 1019.16 1019.03 1018.89 1019.39 1018.98 1018.71 1018.80 1018.75 1018.13 1016.88 1016.64 1016.56 1016.61 1016.63 1016.66 1016.68 1016.55 1016.54 1016.55 1016.63 1016.79 1016.90 1016.91 1016.94 1016.84
1023.74 1023.30 1023.17 1023.03 1022.93 1023.00 1023.12 1023.17 1023.26 1023.32 1023.40 1023.37 1023.43 1023.32 1023.31 1023.32 1023.15 1022.89 1022.75 1022.93 1023.10 1023.13 1022.90 1022.16 1021.43 1020.63 1020.48 1019.36 1018.99 1019.11 1019.03 1018.86 1018.83 1018.66 1018.84 1018.52 1017.87 1016.81 1016.49 1016.27 1016.22 1016.28 1016.45 1016.50 1016.31 1016.16 1016.31 1016.40 1016.52 1016.57 1016.61 1016.67 1016.74 1016.76
1023.41 1022.90 1022.82 1022.58 1022.67 1022.85 1022.94 1023.09 1023.23 1023.35 1023.46 1023.57 1023.50 1023.57 1023.64 1023.22 1023.06 1022.87 1022.62 1022.67 1022.61 1022.51 1022.26 1021.68 1021.32 1020.81 1020.49 1019.93 1019.37 1019.03 1018.80 1018.65 1018.43 1018.45 1018.21 1017.88 1017.21 1016.34 1015.96 1015.75 1015.63 1015.77 1016.00 1016.12 1016.21 1016.24 1016.27 1016.36 1016.35 1016.40 1016.42 1016.50 1016.53 1016.53
1023.70 1023.31 1023.04 1023.04 1023.03 1023.00 1023.00 1023.09 1023.32 1023.55 1023.70 1023.65 1023.63 1023.55 1023.47 1023.10 1022.88 1022.67 1022.14 1022.04 1021.96 1021.52 1021.30 1021.35 1021.15 1021.08 1020.47 1020.32 1019.70 1019.11 1018.57 1018.55 1018.09 1018.27 1017.92 1017.16 1016.66 1016.08 1015.67 1015.35 1015.40 1015.50 1015.71 1015.86 1015.98 1015.97 1016.06 1016.17 1016.30 1016.42 1016.47 1016.41 1016.37 1016.44
1024.02 1023.79 1023.60 1023.43 1023.38 1023.17 1023.08 1023.19 1023.38 1023.45 1023.48 1023.58 1023.51 1023.28 1023.15 1022.96 1022.58 1022.18 1021.37 1021.32 1021.27 1021.17 1020.85 1020.74 1020.80 1020.66 1020.45 1020.26 1019.55 1019.01 1018.44 1018.07 1018.24 1017.87 1017.47 1016.75 1016.35 1015.94 1015.63 1015.48 1015.48 1015.59 1015.70 1015.78 1015.85 1015.92 1015.97 1016.14 1016.31 1016.52 1016.62 1016.57 1016.47 1016.53
1024.33 1024.10 1023.89 1023.72 1023.53 1023.39 1023.45 1023.41 1023.45 1023.55 1023.63 1023.45 1023.26 1023.05 1022.86 1022.38 1022.15 1021.82 1021.64 1021.44 1021.23 1021.02 1020.62 1020.40 1020.26 1019.94 1019.66 1019.51 1018.89 1018.48 1018.01 1017.82 1017.58 1017.41 1016.93 1016.68 1016.31 1015.97 1015.71 1015.61 1015.56 1015.62 1015.69 1015.74 1015.87 1015.96 1016.07 1016.17 1016.36 1016.66 1016.74 1016.77 1016.67 1016.72
1024.62 1024.41 1024.17 1024.11 1023.90 1023.68 1023.70 1023.68 1023.72 1023.79 1023.69 1023.46 1023.36 1022.92 1022.52 1022.46 1022.08 1021.77 1021.49 1021.21 1020.87 1020.49 1020.22 1020.00 1019.96 1019.73 1019.21 1018.92 1018.52 1018.32 1017.88 1017.40 1017.37 1016.74 1016.66 1016.69 1016.50 1016.16 1015.81 1015.71 1015.63 1015.61 1015.63 1015.73 1015.94 1016.03 1016.14 1016.26 1016.43 1016.66 1016.87 1016.93 1017.02 1017.13
1024.81 1024.66 1024.71 1024.51 1024.26 1024.15 1023.96 1023.94 1023.92 1023.93 1023.78 1023.57 1023.36 1022.92 1022.52 1022.20 1021.50 1021.23 1021.02 1020.38 1020.00 1019.86 1019.57 1019.60 1019.25 1019.16 1018.85 1018.68 1018.47 1018.17 1017.67 1017.38 1017.37 1017.23 1017.03 1016.80 1016.45 1016.19 1015.92 1015.69 1015.56 1015.61 1015.70 1015.78 1015.91 1016.03 1016.13 1016.22 1016.36 1016.63 1016.87 1017.10 1017.25 1017.39
1024.91 1025.11 1024.82 1024.67 1024.61 1024.42 1024.26 1024.20 1024.11 1023.91 1023.75 1023.57 1023.16 1023.02 1022.86 1022.37 1021.70 1021.19 1020.63 1019.94 1019.94 1019.74 1019.43 1019.20 1019.05 1019.16 1019.15 1018.86 1018.68 1018.49 1017.99 1017.81 1017.52 1017.25 1017.02 1016.71 1016.38 1016.12 1015.85 1015.63 1015.52 1015.53 1015.63 1015.72 1015.80 1015.93 1015.99 1016.16 1016.32 1016.44 1016.67 1017.19 1017.41 1017.55
1025.56 1025.45 1025.03 1024.87 1024.72 1024.59 1024.55 1024.50 1024.36 1024.18 1023.76 1023.50 1023.15 1022.69 1022.68 1022.21 1021.43 1020.86 1020.40 1020.06 1019.92 1019.62 1019.38 1019.34 1019.43 1019.26 1019.34 1019.27 1019.03 1018.70 1018.47 1017.99 1017.65 1017.33 1016.90 1016.58 1016.24 1015.85 1015.58 1015.45 1015.37 1015.37 1015.49 1015.59 1015.64 1015.75 1015.83 1015.96 1016.07 1016.24 1016.62 1017.11 1017.26 1017.41
1025.74 1025.43 1025.24 1025.05 1024.90 1024.87 1024.70 1024.80 1024.76 1024.27 1023.70 1023.46 1023.08 1022.77 1022.45 1021.83 1021.18 1020.81 1020.50 1020.11 1019.98 1019.82 1019.63 1019.29 1019.60 1019.80 1019.75 1019.46 1019.26 1018.90 1018.53 1018.19 1017.73 1017.30 1016.89 1016.51 1016.16 1015.81 1015.64 1015.44 1015.35 1015.38 1015.43 1015.50 1015.57 1015.56 1015.67 1015.92 1016.04 1016.14 1016.41 1016.70 1016.91 1017.32
1025.64 1025.45 1025.27 1025.14 1025.04 1024.95 1024.78 1024.83 1024.98 1024.57 1023.76 1023.43 1023.07 1022.43 1021.96 1021.46 1020.97 1020.47 1020.23 1019.89 1019.68 1019.66 1019.71 1020.23 1020.42 1020.25 1019.86 1019.07 1019.06 1018.82 1018.60 1018.42 1017.93 1016.97 1016.42 1016.08 1016.19 1015.91 1015.75 1015.63 1015.42 1015.41 1015.43 1015.46 1015.54 1015.73 1015.52 1015.66 1015.88 1016.12 1016.36 1016.65 1016.84 1017.42
1025.63 1025.53 1025.35 1025.31 1025.20 1025.21 1025.17 1024.82 1024.55 1024.33 1023.82 1023.29 1022.72 1022.34 1021.66 1021.23 1020.70 1020.48 1020.38 1020.14 1019.90 1020.51 1020.82 1021.04 1020.92 1020.34 1019.77 1019.24 1018.84 1018.70 1018.47 1018.47 1018.07 1017.74 1017.26 1016.50 1016.30 1016.09 1015.89 1015.69 1015.53 1015.39 1015.30 1015.32 1015.30 1015.30 1015.33 1015.43 1015.57 1015.91 1016.27 1016.71 1017.21 1017.66
1025.82 1025.58 1025.42 1025.26 1025.19 1025.14 1024.99 1024.84 1024.60 1024.22 1023.94 1023.08 1022.57 1022.21 1021.58 1021.15 1020.83 1020.89 1021.01 1020.59 1021.45 1021.79 1022.00 1021.84 1021.48 1020.90 1020.13 1019.26 1018.86 1018.53 1018.40 1018.29 1018.03 1017.80 1017.58 1017.11 1016.70 1016.27 1015.96 1015.84 1015.56 1015.39 1015.37 1015.32 1015.23 1015.05 1014.96 1015.09 1015.46 1015.80 1016.19 1016.87 1017.29 1017.64
1025.74 1025.65 1025.48 1025.31 1025.29 1025.13 1024.94 1024.70 1024.34 1023.86 1023.53 1022.86 1022.46 1022.02 1021.62 1021.40 1021.25 1021.29 1021.29 1021.87 1022.17 1022.32 1022.26 1022.06 1021.55 1020.90 1020.22 1019.43 1018.97 1018.70 1018.52 1018.31 1017.93 1017.64 1017.40 1017.19 1016.77 1016.38 1016.06 1015.78 1015.61 1015.37 1015.22 1015.24 1015.31 1015.16 1014.97 1015.29 1015.49 1015.63 1016.22 1016.68 1017.06 1017.58
1025.68 1025.63 1025.53 1025.37 1025.32 1024.94 1024.70 1024.41 1024.28 1023.88 1023.46 1023.01 1022.61 1022.02 1021.68 1021.46 1021.47 1021.52 1021.90 1022.38 1022.83 1022.84 1022.53 1022.16 1021.59 1020.74 1020.00 1019.54 1019.13 1018.98 1018.79 1018.58 1018.14 1017.66 1017.35 1017.03 1016.58 1016.33 1016.10 1015.83 1015.67 1015.54 1015.48 1015.32 1015.06 1014.84 1014.67 1014.75 1015.15 1015.46 1015.94 1016.47 1016.88 1017.38
1026.09 1026.02 1025.82 1025.35 1025.11 1024.86 1024.37 1023.92 1023.72 1023.44 1023.10 1022.84 1022.60 1022.36 1022.20 1022.11 1021.72 1022.18 1022.61 1023.09 1023.06 1023.10 1022.77 1022.45 1022.00 1021.67 1021.15 1020.46 1020.05 1019.73 1019.37 1019.08 1018.64 1017.95 1017.39 1017.24 1016.83 1016.41 1016.11 1015.79 1015.76 1015.78 1015.65 1015.29 1014.96 1014.73 1014.48 1014.47 1014.63 1015.06 1015.67 1016.21 1016.72 1017.52
1026.05 1025.61 1025.52 1025.00 1024.82 1024.78 1024.43 1024.06 1023.70 1023.53 1023.19 1022.92 1022.78 1022.85 1022.72 1022.38 1022.45 1023.03 1023.53 1023.63 1023.58 1023.40 1023.18 1022.84 1022.41 1021.89 1021.42 1021.00 1020.50 1020.00 1019.51 1019.30 1018.91 1018.19 1017.57 1017.40 1017.14 1016.87 1016.63 1016.36 1016.19 1016.01 1016.14 1015.87 1015.40 1014.83 1014.40 1014.39 1014.47 1014.90 1015.56 1016.49 1017.14 1017.75
1025.84 1025.22 1025.13 1025.14 1025.03 1024.86 1024.56 1024.26 1023.97 1023.78 1023.41 1023.25 1023.22 1023.15 1023.04 1023.14 1023.51 1023.88 1024.11 1024.13 1024.00 1023.71 1023.38 1022.92 1022.53 1022.11 1021.64 1021.03 1020.58 1020.06 1019.60 1019.28 1018.95 1018.53 1018.25 1017.92 1017.88 1017.85 1017.74 1017.51 1017.21 1017.03 1016.82 1016.20 1015.63 1015.22 1014.88 1014.66 1014.68 1014.98 1015.51 1016.32 1017.21 1017.96
1025.53 1025.29 1025.10 1025.07 1025.15 1025.06 1024.72 1024.35 1024.14 1023.95 1023.86 1023.90 1023.74 1023.74 1023.79 1024.05 1024.30 1024.42 1024.33 1024.14 1024.01 1023.54 1023.11 1022.54 1022.21 1021.89 1021.52 1021.13 1020.72 1020.17 1019.51 1019.01 1018.64 1018.51 1018.31 1018.18 1018.25 1018.22 1018.22 1018.06 1017.72 1017.42 1016.99 1016.41 1016.07 1015.46 1015.19 1015.04 1015.07 1015.33 1015.72 1016.39 1017.36 1018.06
1025.32 1025.11 1025.12 1024.94 1024.94 1024.88 1024.72 1024.61 1024.40 1024.39 1024.50 1024.39 1024.29 1024.21 1024.35 1024.39 1024.50 1024.45 1024.34 1024.10 1023.81 1023.44 1023.00 1022.57 1022.15 1021.83 1021.45 1021.13 1020.87 1020.62 1020.18 1019.59 1019.08 1018.98 1018.98 1019.00 1018.89 1018.64 1018.81 1018.51 1017.98 1017.44 1016.94 1016.41 1016.00 1015.82 1015.63 1015.28 1015.07 1015.45 1015.98 1016.54 1017.29 1017.80
1025.05 1025.08 1024.96 1024.79 1024.95 1024.95 1024.77 1024.76 1024.66 1024.62 1024.75 1024.82 1024.79 1024.73 1024.66 1024.54 1024.34 1024.27 1024.17 1023.88 1023.60 1023.41 1023.22 1022.97 1022.60 1022.19 1021.87 1021.55 1021.15 1020.82 1020.84 1020.71 1020.60 1020.58 1020.37 1020.22 1020.16 1019.85 1019.46 1018.89 1018.35 1017.89 1017.36 1016.78 1016.27 1015.83 1015.90 1015.70 1015.92 1016.28 1016.71 1017.17 1017.60 1018.25
1024.94 1024.96 1024.84 1024.74 1024.70 1024.74 1024.75 1024.83 1024.87 1024.86 1024.92 1024.93 1024.90 1024.84 1024.79 1024.59 1024.19 1024.11 1024.06 1023.93 1023.67 1023.42 1023.14 1022.79 1022.54 1022.49 1022.17 1021.93 1021.73 1021.44 1021.13 1021.12 1021.28 1021.40 1021.52 1021.22 1020.85 1020.47 1019.95 1019.40 1018.88 1018.35 1017.79 1017.26 1016.75 1016.23 1016.07 1016.25 1016.50 1016.80 1017.31 1017.73 1018.35 1018.77
1024.73 1024.64 1024.53 1024.46 1024.62 1024.73 1024.69 1024.75 1024.88 1024.93 1025.00 1024.96 1024.91 1024.88 1024.65 1024.36 1024.15 1024.00 1024.01 1023.94 1023.71 1023.52 1023.36 1023.14 1022.77 1022.55 1022.49 1022.30 1022.17 1022.04 1022.04 1021.80 1021.95 1022.24 1022.25 1021.93 1021.58 1021.07 1020.27 1019.71 1019.32 1018.97 1018.53 1018.06 1017.68 1017.21 1016.89 1016.68 1016.77 1016.98 1017.34 1017.98 1018.41 1018.76
1024.44 1024.51 1024.52 1024.44 1024.46 1024.52 1024.46 1024.54 1024.58 1024.70 1024.74 1024.78 1024.81 1024.74 1024.64 1024.56 1024.32 1024.15 1024.05 1023.88 1023.80 1023.59 1023.36 1023.07 1022.85 1022.75 1022.63 1022.54 1022.43 1022.27 1022.22 1022.33 1022.87 1023.11 1022.88 1022.71 1022.49 1022.05 1020.82 1020.13 1019.96 1019.72 1019.27 1018.84 1018.55 1018.33 1018.08 1017.80 1017.66 1017.59 1017.90 1018.30 1018.69 1019.16
Wind_Speed
12 13 13 13 12 11 10 11 8 8 8 7 8 9 9 9 4 1 1 3 2 3 8 8 9 10 6 5 6 3 4 4 3 5 4 4 5 3 3 1 3 7 6 5 4 4 6 2 3 4 4 5 9 10
12 13 13 13 12 10 9 9 9 11 10 8 6 8 8 6 6 3 2 2 0 4 6 4 12 14 14 12 4 2 4 4 2 2 2 1 3 3 3 4 2 5 2 1 5 1 4 1 2 6 5 8 11 13
13 13 13 13 13 12 12 9 9 10 10 7 6 7 9 9 9 5 1 1 1 3 7 4 5 2 6 14 14 6 3 4 3 2 1 1 3 1 4 3 2 2 2 3 3 3 2 4 7 6 6 9 11 11
12 13 14 13 13 13 12 10 9 10 10 7 8 8 9 10 3 1 2 2 1 2 4 5 2 7 5 7 11 18 1 3 2 2 2 2 2 1 1 2 4 2 5 4 6 8 7 1 4 8 10 9 8 10
13 13 14 14 14 14 13 9 10 10 9 9 8 9 3 3 4 1 3 4 5 3 3 7 14 1 4 5 10 13 11 4 2 2 3 2 2 3 1 2 6 5 6 5 3 3 3 7 7 9 7 7 8 10
14 14 14 15 15 13 14 10 9 9 10 12 11 7 4 3 2 2 2 1 3 2 3 4 3 3 3 4 7 11 8 5 3 2 1 1 1 2 3 3 3 6 5 5 1 3 7 10 8 1 3 6 7 8
14 14 15 15 15 16 10 9 9 9 10 8 3 4 4 5 2 3 3 2 5 1 2 5 4 1 4 2 3 4 6 3 2 2 3 1 3 3 3 4 1 3 6 6 6 5 6 3 3 2 1 4 5 6
15 14 14 15 17 10 6 7 8 6 4 2 2 5 9 9 4 4 2 6 9 2 2 3 5 3 6 1 3 1 5 4 5 0 1 2 3 2 4 7 4 5 6 6 3 5 8 7 5 3 2 3 6 8
15 15 13 13 14 6 4 7 4 2 4 2 5 7 2 2 2 2 9 6 2 2 2 2 4 3 4 2 1 2 2 4 3 4 3 3 2 5 6 5 3 3 2 3 5 2 1 1 2 3 4 5 6 8
17 13 12 12 12 5 5 2 2 6 1 3 2 1 1 2 6 9 3 2 2 1 2 3 2 3 2 3 2 1 0 2 3 3 4 3 4 11 11 10 9 8 6 4 2 1 2 0 3 4 5 6 7 8
16 8 8 6 4 2 4 4 5 6 4 1 1 1 3 8 2 1 2 2 2 3 3 3 4 4 2 3 2 1 0 2 3 3 4 4 3 2 2 4 3 3 4 5 5 4 3 4 4 5 7 7 8 8
13 14 8 9 8 3 2 6 9 2 1 2 2 2 2 2 1 3 2 2 3 2 3 3 3 3 2 2 2 1 2 2 1 3 2 2 3 4 3 4 6 5 4 3 3 2 2 0 3 5 7 9 9 7
10 8 8 6 7 7 2 5 8 5 2 1 1 2 1 1 2 3 3 2 2 2 2 2 2 2 2 3 3 2 2 0 4 3 2 1 2 3 1 3 4 3 3 3 3 3 3 3 5 7 9 9 8 5
10 11 10 9 7 9 7 4 4 3 1 1 2 2 2 1 1 2 4 3 2 4 6 3 2 3 2 3 2 2 1 1 3 2 2 0 2 3 2 2 2 3 4 5 5 5 5 5 6 8 9 9 8 6
8 10 7 9 11 7 3 5 5 2 1 1 1 2 1 1 5 4 4 3 3 6 4 2 1 2 3 2 2 1 2 2 2 3 3 2 3 3 2 2 3 3 3 4 4 4 5 5 4 6 9 9 9 5
6 3 5 9 10 11 8 4 2 1 0 1 1 2 1 3 3 2 3 7 4 4 4 2 2 3 2 1 2 3 3 1 3 1 2 3 3 3 2 1 2 2 3 2 2 3 4 5 4 3 6 8 8 6
5 3 12 3 6 4 5 1 2 2 2 2 1 2 3 5 5 3 5 5 4 2 4 2 3 5 1 2 2 3 3 2 2 2 3 4 5 4 3 1 2 3 3 2 2 3 3 3 4 4 5 6 6 5
2 4 8 4 3 3 2 3 1 1 1 1 3 2 1 4 6 5 3 4 4 4 2 3 2 3 3 2 2 2 2 3 3 3 4 5 5 4 2 1 2 3 3 3 2 2 2 2 3 2 3 3 4 5
4 4 7 8 5 2 3 2 2 2 2 2 4 3 3 5 5 7 6 5 3 2 2 1 4 3 2 1 2 1 2 2 3 3 3 4 6 7 5 3 3 4 3 2 3 2 0 1 0 1 2 1 4 4
7 5 5 5 4 1 2 1 1 2 3 3 3 3 4 4 5 5 5 3 2 0 3 3 3 2 3 4 5 5 4 4 3 4 5 5 3 7 7 4 2 3 3 3 1 1 1 0 2 2 2 2 4 5
4 3 5 3 1 2 0 1 2 2 3 3 3 4 4 3 3 3 3 4 3 4 4 4 5 6 8 7 6 3 2 1 3 3 4 6 7 6 5 3 1 3 2 2 1 0 2 2 3 1 4 4 5 5
2 6 2 1 2 2 2 1 3 3 3 3 4 2 3 3 3 3 4 4 3 3 3 3 5 8 8 7 7 5 4 2 4 2 2 6 5 5 5 4 2 2 1 2 2 2 2 1 1 4 5 6 5 5
3 2 2 1 2 2 3 1 3 1 3 3 4 3 1 2 3 3 3 3 2 4 5 5 8 9 7 6 4 5 5 4 2 2 2 2 3 3 3 2 1 3 4 3 2 3 4 3 1 4 7 6 5 5
2 2 3 2 1 3 2 2 2 2 2 2 1 1 1 3 3 2 3 3 3 6 6 9 8 7 3 4 7 7 8 6 5 3 2 3 4 4 4 3 2 1 3 3 3 3 3 1 5 5 7 7 5 5
2 3 1 3 1 3 3 4 3 2 3 3 3 1 3 3 2 3 2 3 5 6 6 7 6 5 5 5 5 6 7 5 5 4 2 2 3 2 4 4 4 3 4 6 6 6 5 2 2 5 7 7 7 7
1 1 1 2 1 3 4 4 4 4 3 2 1 2 2 2 3 4 2 4 4 4 6 6 6 6 6 6 8 7 7 6 5 3 3 4 4 4 5 6 6 4 7 7 6 7 7 6 3 6 7 8 7 8
2 0 0 0 1 2 2 2 3 2 3 5 3 4 3 4 3 2 2 1 2 4 5 6 5 5 6 7 7 7 6 5 5 3 3 3 5 6 6 6 8 7 9 8 7 6 7 7 2 6 9 10 9 9
3 2 2 1 1 1 3 2 3 4 3 3 1 3 3 2 2 2 2 3 5 6 6 5 3 3 3 5 6 7 5 6 2 1 3 1 3 4 9 6 6 7 7 6 7 6 7 5 1 6 11 11 10 8
2 1 2 2 2 2 1 2 2 2 1 2 2 1 2 1 1 1 2 3 5 4 4 5 5 5 4 4 4 6 8 9 11 10 11 8 7 7 9 8 8 8 7 8 6 4 6 3 4 8 10 10 9 10
2 2 2 2 2 2 1 1 1 1 1 1 1 0 1 1 2 2 3 4 4 4 4 3 4 5 6 7 7 7 6 8 8 8 7 8 8 9 8 9 9 9 8 7 8 6 2 5 8 6 8 9 9 9
0 3 2 1 1 0 1 2 1 1 1 1 2 1 2 3 2 1 1 2 4 3 3 3 3 4 5 6 6 7 6 6 8 7 6 5 6 7 8 8 8 8 8 8 8 8 4 3 4 6 7 8 9 7
1 1 2 2 1 0 1 1 1 1 1 2 2 1 2 1 2 1 2 3 3 3 3 4 3 3 4 4 4 4 3 5 5 6 9 6 6 8 7 7 8 8 8 8 8 8 8 5 3 6 8 12 11 11
1 2 1 1 1 1 1 2 1 2 1 1 1 0 1 1 1 1 1 2 2 3 4 4 3 3 4 4 6 5 5 5 5 3 3 4 6 8 7 7 7 7 8 8 8 8 9 9 7 4 8 10 10 10
Wind_Direction
306 305 302 299 299 296 300 310 305 299 293 305 318 323 318 311 341 108 316 213 306 281 284 253 258 258 248 238 246 26 266 182 244 216 225 190 222 188 235 158 198 196 190 196 208 233 250 129 147 244 10 301 295 307
306 304 303 301 298 291 283 287 298 302 298 287 295 315 329 339 323 210 263 195 157 241 280 292 261 256 245 254 233 215 332 316 307 265 194 208 189 190 201 213 155 209 286 284 218 286 87 11 292 316 299 285 299 307
306 309 308 305 300 288 275 273 285 292 302 289 289 297 307 306 298 272 234 220 259 278 275 267 251 233 218 232 228 247 242 246 228 329 345 47 243 246 207 193 199 167 158 249 258 161 245 258 287 267 302 309 308 307
311 310 307 302 299 299 279 273 278 284 293 287 273 279 295 309 324 42 233 167 220 287 280 285 301 261 266 226 203 205 61 107 307 237 214 234 226 200 248 16 264 351 169 217 253 280 278 265 243 336 325 323 322 322
303 306 312 313 304 292 289 261 269 281 270 281 268 266 301 276 326 300 248 223 221 235 290 291 303 275 269 227 220 203 223 242 293 210 211 211 111 203 140 252 243 195 230 212 260 136 300 299 326 330 315 337 337 325
305 307 309 309 306 290 291 248 265 275 278 282 281 276 259 289 41 312 267 105 184 179 290 288 341 265 312 314 191 185 193 215 252 282 145 171 110 259 244 245 249 207 204 223 88 8 290 292 302 342 324 344 340 337
300 298 299 301 304 295 259 245 265 281 299 316 293 269 284 288 162 247 306 127 173 182 271 287 286 309 331 190 130 143 168 171 234 243 218 212 155 204 256 249 181 210 219 236 261 295 280 209 327 331 344 3 358 354
310 295 295 300 305 287 239 267 278 293 315 85 131 255 283 290 281 259 265 266 219 243 269 285 281 287 350 310 140 156 154 173 199 128 208 192 142 228 254 244 249 249 257 263 235 229 265 294 293 219 240 325 352 349
305 297 289 294 306 260 254 273 281 307 165 229 306 318 288 194 227 250 323 131 138 267 273 246 293 328 342 278 159 147 210 177 142 212 199 172 145 227 235 252 236 202 233 331 318 264 196 307 354 280 280 296 305 323
320 298 282 284 285 254 261 235 270 122 110 343 347 298 244 205 249 289 215 190 155 227 242 250 269 271 305 287 80 134 286 157 193 196 122 217 251 263 266 254 261 266 265 263 259 108 27 62 360 332 308 297 286 289
351 334 318 21 32 344 132 95 132 122 71 10 28 261 254 299 280 218 235 235 156 226 209 244 250 280 155 281 346 323 278 182 216 143 213 190 251 272 301 286 231 193 183 196 240 290 277 256 292 317 322 319 306 298
17 17 40 43 27 323 178 145 142 119 154 201 320 301 275 250 228 262 219 179 225 270 194 230 231 226 262 256 267 184 300 207 189 128 222 202 246 291 343 91 101 119 134 159 209 254 173 253 329 332 340 334 330 326
13 27 26 33 18 327 132 135 169 168 221 285 232 239 314 156 255 267 345 123 284 238 236 218 219 219 193 221 249 242 257 297 129 193 185 260 290 320 33 106 115 120 120 123 86 83 65 17 43 29 2 357 348 355
34 35 33 29 25 85 73 62 122 162 318 311 325 327 292 235 336 324 319 309 322 287 287 280 234 212 172 196 242 253 87 231 175 200 169 105 31 14 81 108 133 114 85 88 77 65 50 42 61 36 19 12 10 36
25 26 30 28 37 34 152 100 95 22 310 327 287 348 283 333 249 270 293 293 246 263 277 246 191 237 169 236 234 235 235 230 222 14 64 44 345 332 21 126 133 107 75 82 87 67 56 50 73 48 28 24 26 45
1 64 39 34 51 43 57 38 29 344 317 290 254 277 288 284 319 330 296 292 340 316 308 192 153 178 133 282 218 216 257 92 75 45 348 325 360 9 349 344 108 129 104 76 94 99 72 55 46 54 38 30 29 34
21 21 322 199 351 16 359 355 335 9 346 301 287 269 281 279 275 299 303 316 341 291 355 360 27 27 325 359 28 347 10 25 359 327 318 296 317 332 317 294 221 190 169 160 129 111 124 99 95 83 45 31 35 44
42 325 24 7 352 339 20 17 1 336 306 290 291 355 274 270 287 294 278 329 331 350 350 1 311 26 28 5 354 331 307 323 309 311 328 353 356 7 21 296 196 178 152 155 148 142 174 140 80 101 114 69 56 37
331 336 338 2 5 335 347 59 348 330 300 299 281 273 274 282 274 278 289 299 275 270 277 348 20 348 350 279 272 351 337 340 357 332 304 325 22 30 28 36 104 129 128 136 169 187 30 218 273 207 145 83 58 38
340 341 352 357 358 342 312 57 179 295 292 352 279 287 290 293 308 299 314 323 338 205 63 38 345 315 312 341 351 338 333 330 324 23 26 41 43 17 31 10 57 114 122 115 121 253 267 68 215 222 159 79 56 58
335 343 352 8 44 53 317 313 266 273 313 294 311 316 308 305 308 347 345 332 33 29 40 37 339 313 313 309 311 301 18 185 2 359 347 353 1 359 356 8 124 163 169 167 80 320 267 322 333 120 152 115 90 85
298 331 308 303 6 344 262 215 291 316 269 296 313 321 305 332 349 19 318 40 51 27 15 325 303 314 318 327 331 331 324 293 280 277 256 290 332 349 357 2 5 3 326 304 278 276 286 339 93 143 135 126 116 94
305 351 317 354 333 39 317 316 291 320 291 333 325 302 322 338 356 316 70 49 56 9 355 333 320 310 290 318 354 37 26 359 18 348 331 338 321 335 334 344 24 23 20 36 309 291 307 9 155 147 136 144 137 122
279 333 356 343 307 315 292 269 224 250 245 257 301 337 9 337 10 55 66 57 19 3 1 355 349 345 341 360 23 10 3 351 344 330 347 336 358 18 3 7 15 62 17 339 332 307 294 288 146 160 158 156 151 116
332 335 356 318 203 287 290 311 280 261 339 6 353 44 22 327 56 57 42 14 4 1 354 350 0 4 345 326 349 349 347 345 338 320 358 341 332 349 23 44 55 46 5 349 358 354 5 7 202 162 162 160 146 121
6 233 249 2 8 345 350 334 351 341 301 286 49 18 351 19 53 58 43 342 345 338 342 337 333 332 335 333 328 332 328 331 316 280 21 360 5 6 3 1 356 15 3 339 323 331 349 18 96 142 145 142 117 119
307 269 167 247 304 303 302 288 289 306 344 22 22 358 16 58 57 29 0 11 313 317 305 302 297 297 306 322 331 320 310 296 270 321 336 43 54 42 21 1 347 341 331 333 330 334 331 340 52 131 136 135 129 125
260 289 254 126 346 287 301 296 330 12 9 3 312 35 37 29 64 357 313 301 312 311 310 331 326 318 330 343 345 350 347 336 335 265 240 148 29 33 12 350 330 313 306 330 337 344 348 343 60 148 146 140 134 134
243 205 215 253 198 226 280 306 340 46 358 340 338 29 28 24 337 300 278 296 311 321 347 354 359 354 4 354 13 20 20 25 34 36 27 16 1 357 353 340 335 333 330 329 346 12 338 301 154 148 149 145 139 133
219 175 233 178 146 238 281 222 326 91 42 16 5 76 323 308 272 268 289 316 341 347 340 322 336 12 14 10 7 28 44 36 35 28 14 7 345 332 334 336 341 342 334 331 336 339 86 96 89 103 127 135 131 131
242 183 216 182 249 240 151 87 62 71 56 31 25 28 23 314 299 237 266 295 317 328 330 357 14 26 17 20 16 10 12 25 18 23 6 340 345 345 343 342 343 341 347 351 355 4 22 116 139 130 149 126 117 126
143 196 201 198 101 162 144 116 108 79 28 28 25 341 337 302 28 348 16 342 342 350 329 326 336 358 357 352 6 8 337 337 13 15 8 3 354 349 351 356 357 356 358 6 9 12 11 18 122 156 146 145 153 153
114 89 67 78 60 74 174 164 116 121 140 152 110 233 1 330 325 340 332 259 270 294 301 292 295 316 342 3 13 9 14 55 85 59 31 26 13 349 343 359 356 1 2 10 16 18 17 25 33 91 139 145 143 144